[[{"header":{"parameterUnit":"m.s-1","parameterCategory":1,"la1":30.2991,"la2":30.254,"lo1":-89.0895,"lo2":-89.0444,"dy":0.0017,"dx":0.0017,"nx":28,"ny":28,"refTime":"2023-03-31T21:00:00:Z","depth":0,"parameterNumber":2,"parameterNumberName":"U-component_of_WINDS"},"data":[0,0,0,0,0,0,0,0,0,0,0,0,0,0,0,0,0,0,0,0,0,0,0,0,0,0,0,0,0,0,0,0,0,0,0,0,0,0,0,0,0,0,0,0,0,0,0,0,0,0,0,0,0,0,0,0,0,0,-3.0041,-3.0042,0,-3.0115,-3.0116,-3.0117,-3.0048,-3.0045,-3.0042,-3.0039,-3.0115,-3.012,-3.0124,0,0,0,0,0,0,0,0,0,0,0,0,0,-2.984,-2.9844,-3.0041,-3.0042,-3.0043,-3.0115,-3.0116,-3.0117,-3.0048,-3.0045,-3.0041,-3.0038,-3.0114,-3.0119,-3.0125,0,0,0,0,0,0,0,0,0,0,0,0,0,-2.9922,-2.9846,-3.0041,-3.0017,-3.0016,-3.0115,-3.0116,-3.0117,-3.0049,-3.0045,-3.0041,-3.0037,-3.0112,-3.0119,-3.0126,-3.0252,0,0,-3.0147,-3.015,0,0,0,0,0,0,0,0,-2.9918,-2.993,-3.002,-3.0019,-3.0018,-3.0068,-3.0073,-3.0162,-3.005,-3.0036,-3.0039,-3.0035,-3.0103,-3.011,-3.0133,-3.0255,-3.0258,-3.0147,-3.0152,-3.0155,-3.0156,0,0,0,0,0,0,0,-2.9912,-2.9926,-3.007,-3.0021,-3.002,-3.0003,-3.001,-3.009,-3.0092,-3.0037,-3.0032,-3.0042,-3.0102,-3.0127,-3.0135,-3.0259,-3.0147,-3.0153,-3.0158,-3.016,-3.0488,-3.0492,0,0,0,0,0,0,-2.9909,-2.9922,-3.0068,-3.0073,-2.9957,-3.001,-3.0018,-3.0056,-3.0091,-3.0092,-3.0046,-3.0039,-3.0117,-3.0127,-3.0137,-3.0287,-3.0154,-3.0161,-3.0165,-3.0483,-3.0489,-3.0494,0,0,0,0,0,0,-2.9905,-2.9923,-3.0065,-2.9996,-3.0013,-3.0018,-3.0061,-3.006,-3.0085,-3.0097,-3.0097,-3.0071,-3.0114,-3.0127,-3.0223,-3.0289,-3.0164,-3.017,-3.0478,-3.0485,-3.0491,-3.0588,0,0,0,0,0,0,-2.99,-2.9922,-2.997,-2.9998,-3.0017,-3.0151,-3.0065,-3.0064,-3.0097,-3.0089,-3.0121,-3.0123,-3.0112,-3.0214,-3.023,-3.0296,-3.0176,-3.0472,-3.0481,-3.0489,-3.0579,-3.0597,-3.0613,0,0,0,0,0,-2.9893,-2.9994,-2.9973,-2.9991,-3.0077,-3.0155,-3.0166,-3.0151,-3.0103,-3.0151,-3.0159,-3.0122,-3.0278,-3.0224,-3.0242,-3.0311,-3.0468,-3.0478,-3.0488,-3.0571,-3.0593,-3.0612,0,0,0,0,0,0,-2.9974,-2.9998,-2.9974,-3.0088,-3.012,-3.0143,-3.0204,-3.0175,-3.0222,-3.0212,-3.0192,-3.02,-3.0302,-3.0316,-3.0255,-3.0434,-3.0365,-3.038,-3.0422,-3.0443,-3.046,-3.0455,-3.0181,0,0,0,0,0,-3.0006,-3.0067,-3.0083,-3.0182,-3.02,-3.0199,-3.0232,-3.0218,-3.0251,-3.0264,-3.0279,-3.0312,-3.0368,-3.0406,-3.0459,-3.058,-3.0586,-3.0636,-3.0653,-3.0667,-3.068,-3.0744,-3.0767,-3.0527,-3.0527,-3.0527,0,0,-3.0071,-3.0091,-3.0131,-3.0199,-3.0222,-3.0286,-3.0211,-3.0282,-3.0329,-3.0275,-3.0367,-3.0379,-3.0414,-3.0523,-3.0572,-3.0538,-3.0747,-3.068,-3.0691,-3.0696,-3.0757,-3.078,-3.08,-3.0534,-3.0533,-3.0532,0,0,-3.0223,-3.0244,-3.0328,-3.0353,-3.0389,-3.0388,-3.0408,-3.0436,-3.0442,-3.0533,-3.0494,-3.0549,-3.0647,-3.0674,-3.0701,-3.0862,-3.0829,-3.0879,-3.0968,-3.1031,-3.105,-3.1067,-3.1124,-3.1145,-3.0892,-3.0892,-3.0892,0,-3.0299,-3.0394,-3.0375,-3.0449,-3.048,-3.0434,-3.0519,-3.0544,-3.0596,-3.0618,-3.0579,-3.07,-3.0721,-3.0836,-3.0875,-3.0898,-3.092,-3.0876,-3.1049,-3.1065,-3.1081,-3.1135,-3.1157,-3.0898,-3.0897,-3.0897,-3.0896,0,-3.0487,-3.0553,-3.0617,-3.0668,-3.0706,-3.0785,-3.0778,-3.0819,-3.0801,-3.0804,-3.0898,-3.0921,-3.0977,-3.1003,-3.0986,-3.1115,-3.1093,-3.1052,-3.0982,-3.111,-3.1161,-3.1182,-3.0906,-3.0904,-3.0903,-3.0901,0,0,-3.0693,-3.0732,-3.0756,-3.0778,-3.0814,-3.0865,-3.0942,-3.0997,-3.1032,-3.1069,-3.1133,-3.1216,-3.1178,-3.1208,-3.1194,-3.125,-3.1376,-3.1201,-3.1202,-3.1233,-3.1519,-3.155,-3.1575,-3.1354,-3.1358,-3.1361,-3.1516,0,-3.0846,-3.098,-3.0965,-3.1093,-3.1154,-3.111,-3.1176,-3.1206,-3.121,-3.1262,-3.1266,-3.1326,-3.1271,-3.1289,-3.1342,-3.1349,-3.1433,-3.1338,-3.1413,-3.1416,-3.1407,-3.1601,-3.1635,-3.178,-3.1536,-3.1539,-3.1542,0,-3.1044,-3.1087,-3.1221,-3.1247,-3.1272,-3.1332,-3.1381,-3.1431,-3.1463,-3.1462,-3.1496,-3.1472,-3.1548,-3.1476,-3.1582,-3.1517,-3.1547,-3.1555,-3.156,-3.1567,-3.1487,-3.1614,-3.1826,-3.1849,-3.1573,-3.157,-3.1568,0,-3.1182,-3.1274,-3.1365,-3.1386,-3.1418,-3.1462,-3.1477,-3.1505,-3.1539,-3.1581,-3.1603,-3.1654,-3.1682,-3.1722,-3.1712,-3.166,-3.182,-3.1747,-3.1821,-3.1822,-3.1858,-3.1856,-3.2078,-3.1876,-3.1876,-3.1875,-3.1875,0,-3.1355,-3.1438,-3.1428,-3.1484,-3.1576,-3.1558,-3.165,-3.166,-3.1684,-3.1742,-3.1707,-3.1761,-3.1744,-3.1798,-3.1791,-3.1879,-3.1892,-3.1893,-3.1891,-3.1897,-3.1897,-3.1917,-3.1907,-3.1881,-3.188,-3.1879,-3.1878,0,-3.1525,-3.1521,-3.1618,-3.1641,-3.1649,-3.1716,-3.1735,-3.1788,-3.1789,-3.1862,-3.1878,-3.188,-3.1941,-3.1935,-3.2003,-3.1998,-3.2108,-3.2093,-3.2097,-3.2094,-3.2169,-3.2162,-3.2413,-3.2444,-3.2222,-3.2224,-3.2225,0,-3.1636,-3.1699,-3.1729,-3.1765,-3.1783,-3.1842,-3.1876,-3.186,-3.1897,-3.1937,-3.1986,-3.2044,-3.2089,-3.2189,-3.2196,-3.2249,-3.2234,-3.2319,-3.2242,-3.2246,-3.2236,-3.2233,-3.2239,-3.2334,-3.2337,-3.2339,-3.234,0,-3.1834,-3.1829,-3.188,-3.193,-3.1972,-3.201,-3.2045,-3.2077,-3.2064,-3.2108,-3.217,-3.2205,-3.2275,-3.2333,-3.2382,-3.2397,-3.2367,-3.2364,-3.2384,-3.2392,-3.2392,-3.2393,-3.2139,-3.2359,-3.2357,-3.2355,-3.2354,-3.2354,-3.1978,-3.2032,-3.2061,-3.2119,-3.2143,-3.2177,-3.2228,-3.2235,-3.2287,-3.2342,-3.2329,-3.24,-3.2429,-3.2492,-3.2512,-3.2566,-3.2536,-3.2565,-3.2572,-3.258,-3.2588,-3.2383,-3.2575,-3.2575,-3.2574,-3.2574,-3.2573,0,-3.2174,-3.2191,-3.2244,-3.2294,-3.2339,-3.2306,-3.2343,-3.2383,-3.2445,-3.2475,-3.252,-3.2592,-3.2647,-3.2659,-3.2712,-3.2753,-3.274,-3.2767,-3.2764,-3.2768,-3.2613,-3.259,-3.2777,-3.2777,-3.2777,-3.2777,-3.2777,-3.2777,-3.2282,-3.2371,-3.237,-3.2471,-3.2486,-3.2555,-3.2579,-3.2609,-3.2633,-3.2714,-3.276,-3.2767,-3.2789,-3.2843,-3.2893,-3.2895,-3.2916,-3.2949,-3.2945,-3.28,-3.278,-3.276,-3.2739,-3.2954,-3.2954,-3.3096,-3.3098,-3.3099]},{"header":{"parameterUnit":"m.s-1","parameterCategory":1,"la1":30.2991,"la2":30.254,"lo1":-89.0895,"lo2":-89.0444,"dy":0.0017,"dx":0.0017,"nx":28,"ny":28,"refTime":"2023-03-31T21:00:00:Z","depth":0,"parameterNumber":3,"parameterNumberName":"V-component_of_WINDS"},"data":[0,0,0,0,0,0,0,0,0,0,0,0,0,0,0,0,0,0,0,0,0,0,0,0,0,0,0,0,0,0,0,0,0,0,0,0,0,0,0,0,0,0,0,0,0,0,0,0,0,0,0,0,0,0,0,0,0,0,-3.0125,-3.0125,0,-3.0154,-3.0154,-3.0154,-3.0127,-3.0126,-3.0125,-3.0124,-3.0153,-3.0155,-3.0157,0,0,0,0,0,0,0,0,0,0,0,0,0,-3.0043,-3.0045,-3.0125,-3.0125,-3.0125,-3.0154,-3.0154,-3.0155,-3.0127,-3.0126,-3.0125,-3.0123,-3.0153,-3.0155,-3.0157,0,0,0,0,0,0,0,0,0,0,0,0,0,-3.0076,-3.0045,-3.0124,-3.0115,-3.0115,-3.0154,-3.0154,-3.0155,-3.0128,-3.0126,-3.0124,-3.0123,-3.0152,-3.0155,-3.0157,-3.0207,0,0,-3.0166,-3.0167,0,0,0,0,0,0,0,0,-3.0074,-3.0079,-3.0116,-3.0116,-3.0115,-3.0135,-3.0136,-3.0172,-3.0128,-3.0123,-3.0124,-3.0122,-3.0149,-3.0152,-3.0161,-3.0209,-3.021,-3.0166,-3.0168,-3.0169,-3.017,0,0,0,0,0,0,0,-3.0072,-3.0078,-3.0136,-3.0117,-3.0116,-3.0109,-3.0112,-3.0143,-3.0145,-3.0123,-3.0121,-3.0125,-3.0148,-3.0158,-3.0161,-3.021,-3.0166,-3.0168,-3.017,-3.0171,-3.0298,-3.03,0,0,0,0,0,0,-3.0071,-3.0076,-3.0135,-3.0137,-3.009,-3.0112,-3.0115,-3.013,-3.0144,-3.0145,-3.0126,-3.0124,-3.0154,-3.0158,-3.0162,-3.022,-3.0169,-3.0171,-3.0173,-3.0297,-3.0299,-3.0301,0,0,0,0,0,0,-3.0069,-3.0076,-3.0134,-3.0106,-3.0113,-3.0115,-3.0133,-3.0132,-3.0142,-3.0147,-3.0147,-3.0136,-3.0153,-3.0158,-3.0196,-3.0221,-3.0173,-3.0175,-3.0295,-3.0297,-3.03,-3.0337,0,0,0,0,0,0,-3.0067,-3.0076,-3.0096,-3.0107,-3.0114,-3.0168,-3.0134,-3.0134,-3.0147,-3.0143,-3.0156,-3.0157,-3.0152,-3.0192,-3.0198,-3.0223,-3.0177,-3.0292,-3.0296,-3.0299,-3.0333,-3.034,-3.0346,0,0,0,0,0,-3.0064,-3.0105,-3.0097,-3.0104,-3.0139,-3.0169,-3.0174,-3.0168,-3.0149,-3.0168,-3.0171,-3.0156,-3.0217,-3.0196,-3.0203,-3.0229,-3.0291,-3.0295,-3.0299,-3.0331,-3.0339,-3.0346,0,0,0,0,0,0,-3.0098,-3.0107,-3.0097,-3.0143,-3.0156,-3.0165,-3.0189,-3.0178,-3.0196,-3.0192,-3.0184,-3.0187,-3.0226,-3.0232,-3.0208,-3.0277,-3.0251,-3.0256,-3.0272,-3.0281,-3.0287,-3.0285,-3.0179,0,0,0,0,0,-3.011,-3.0135,-3.0141,-3.0181,-3.0188,-3.0187,-3.02,-3.0195,-3.0207,-3.0212,-3.0218,-3.0231,-3.0252,-3.0267,-3.0287,-3.0334,-3.0336,-3.0355,-3.0362,-3.0367,-3.0372,-3.0396,-3.0404,-3.0314,-3.0313,-3.0313,0,0,-3.0137,-3.0145,-3.0161,-3.0188,-3.0197,-3.0221,-3.0192,-3.022,-3.0238,-3.0217,-3.0252,-3.0256,-3.027,-3.0312,-3.0331,-3.0317,-3.0397,-3.0372,-3.0376,-3.0378,-3.04,-3.0409,-3.0417,-3.0316,-3.0316,-3.0315,0,0,-3.0197,-3.0206,-3.024,-3.0249,-3.0263,-3.0262,-3.027,-3.028,-3.0282,-3.0318,-3.0302,-3.0323,-3.0361,-3.037,-3.038,-3.0442,-3.0429,-3.0449,-3.0483,-3.0506,-3.0513,-3.0519,-3.054,-3.0548,-3.0454,-3.0454,-3.0454,0,-3.0229,-3.0266,-3.0258,-3.0287,-3.0299,-3.028,-3.0313,-3.0322,-3.0342,-3.035,-3.0335,-3.0381,-3.0389,-3.0432,-3.0447,-3.0456,-3.0464,-3.0448,-3.0513,-3.0519,-3.0525,-3.0545,-3.0553,-3.0456,-3.0456,-3.0456,-3.0456,0,-3.0303,-3.0328,-3.0353,-3.0372,-3.0387,-3.0418,-3.0414,-3.043,-3.0422,-3.0422,-3.0458,-3.0466,-3.0487,-3.0497,-3.049,-3.0539,-3.053,-3.0514,-3.0487,-3.0536,-3.0554,-3.0562,-3.0459,-3.0459,-3.0458,-3.0457,0,0,-3.0387,-3.0399,-3.0409,-3.0416,-3.0429,-3.0448,-3.0478,-3.0498,-3.051,-3.0524,-3.0548,-3.0579,-3.0564,-3.0575,-3.0569,-3.059,-3.0637,-3.0571,-3.0571,-3.0582,-3.0689,-3.07,-3.0709,-3.0628,-3.0629,-3.063,-3.0687,0,-3.0447,-3.0497,-3.0491,-3.0539,-3.0562,-3.0543,-3.0568,-3.0578,-3.0579,-3.0598,-3.0599,-3.0621,-3.06,-3.0606,-3.0625,-3.0627,-3.0658,-3.0623,-3.0649,-3.065,-3.0645,-3.0719,-3.0732,-3.0785,-3.0695,-3.0696,-3.0697,0,-3.0524,-3.054,-3.059,-3.0598,-3.0607,-3.063,-3.0647,-3.0665,-3.0676,-3.0675,-3.0686,-3.0676,-3.0704,-3.0677,-3.0714,-3.0691,-3.0701,-3.0703,-3.0705,-3.0707,-3.0676,-3.0722,-3.0802,-3.0809,-3.0708,-3.0707,-3.0706,0,-3.0579,-3.0613,-3.0647,-3.0654,-3.0664,-3.068,-3.0685,-3.0693,-3.0705,-3.072,-3.0727,-3.0745,-3.0755,-3.0768,-3.0763,-3.0744,-3.0801,-3.0774,-3.08,-3.08,-3.0813,-3.0812,-3.0895,-3.0821,-3.0821,-3.0821,-3.0821,0,-3.0647,-3.0678,-3.0671,-3.0692,-3.0726,-3.0717,-3.0751,-3.0753,-3.0761,-3.0781,-3.0767,-3.0786,-3.0778,-3.0796,-3.0792,-3.0823,-3.0828,-3.0827,-3.0826,-3.0828,-3.0828,-3.0835,-3.083,-3.0823,-3.0822,-3.0822,-3.0822,0,-3.0714,-3.071,-3.0746,-3.0752,-3.0754,-3.0778,-3.0783,-3.0802,-3.0801,-3.0827,-3.0832,-3.0831,-3.0852,-3.0847,-3.0871,-3.0868,-3.0906,-3.0901,-3.0903,-3.0901,-3.0928,-3.0925,-3.1017,-3.1028,-3.0947,-3.0948,-3.0949,0,-3.0757,-3.078,-3.0788,-3.08,-3.0806,-3.0827,-3.0838,-3.083,-3.0843,-3.0855,-3.0872,-3.0892,-3.0907,-3.0941,-3.0942,-3.0959,-3.0953,-3.0984,-3.0955,-3.0957,-3.0952,-3.095,-3.0952,-3.0989,-3.099,-3.0991,-3.0992,0,-3.0834,-3.083,-3.0847,-3.0864,-3.0878,-3.089,-3.0902,-3.0912,-3.0905,-3.092,-3.0941,-3.0952,-3.0975,-3.0994,-3.101,-3.1014,-3.1001,-3.1,-3.1007,-3.101,-3.101,-3.1009,-3.0917,-3.0998,-3.0998,-3.0997,-3.0997,-3.0997,-3.0889,-3.0908,-3.0916,-3.0935,-3.0943,-3.0953,-3.097,-3.0971,-3.0988,-3.1006,-3.1,-3.1024,-3.1032,-3.1051,-3.1057,-3.1075,-3.1063,-3.1074,-3.1076,-3.1078,-3.1081,-3.1007,-3.1078,-3.1078,-3.1077,-3.1077,-3.1077,0,-3.0964,-3.0968,-3.0985,-3.1001,-3.1015,-3.1002,-3.1013,-3.1026,-3.1047,-3.1055,-3.107,-3.1093,-3.1111,-3.1112,-3.1129,-3.1143,-3.1137,-3.1147,-3.1146,-3.1147,-3.1091,-3.1083,-3.1151,-3.1151,-3.1151,-3.1151,-3.1151,-3.1151,-3.1005,-3.1036,-3.1033,-3.1067,-3.107,-3.1093,-3.11,-3.1109,-3.1116,-3.1142,-3.1156,-3.1157,-3.1162,-3.1179,-3.1194,-3.1194,-3.1201,-3.1213,-3.121,-3.1158,-3.1151,-3.1144,-3.1136,-3.1214,-3.1215,-3.1264,-3.1265,-3.1265]}]]